Temperature
25 26 26 26 27 27 27 27 26 26 26 26 26 25 24 23 22 22 21 20 19 18 17 16 16 16 16 16 16 16 16 16 16 15 15 15 15 15 15 14 15 14 14 14
25 26 26 26 26 26 26 26 26 25 25 25 25 25 24 23 22 21 21 20 19 18 17 16 16 15 15 15 16 15 15 15 15 15 15 15 15 14 14 14 14 14 14 14
26 26 25 25 25 25 26 26 26 25 25 24 24 24 24 23 22 21 20 20 19 18 17 16 15 15 15 15 15 15 15 15 15 15 15 14 14 14 13 13 13 13 13 13
26 26 25 25 25 26 25 26 26 25 25 25 25 25 24 23 22 21 20 19 19 18 17 16 15 15 15 15 14 14 14 14 14 14 14 14 13 13 13 13 13 13 13 13
26 25 25 25 26 26 26 26 25 25 25 25 25 25 25 23 22 22 20 19 18 17 16 16 15 15 15 14 14 14 14 14 14 14 13 13 13 13 13 13 12 12 12 12
26 26 26 25 25 25 25 25 25 25 26 24 25 24 24 24 23 21 20 19 18 17 16 15 15 14 14 14 13 13 13 13 13 13 13 13 13 13 12 12 12 12 11 11
25 25 25 25 25 24 25 25 24 24 24 24 24 24 23 22 22 21 20 18 17 16 16 15 14 14 14 13 13 13 13 13 12 12 12 12 12 12 12 12 11 11 11 11
24 25 25 25 25 25 25 25 24 23 24 24 24 23 23 21 20 19 18 18 17 16 15 15 14 14 13 13 13 12 12 12 12 12 12 12 12 12 11 11 11 11 11 10
25 24 25 24 25 25 25 25 25 24 24 24 24 23 21 20 19 19 18 17 16 15 15 14 14 13 13 12 12 12 12 12 12 12 11 11 11 11 11 11 11 10 10 10
25 24 25 24 25 24 25 25 24 24 22 22 23 23 22 21 20 19 18 17 16 15 14 14 13 13 12 12 12 12 12 11 11 11 11 11 11 11 11 10 10 10 10 10
24 23 24 24 24 24 24 24 24 24 23 22 22 22 22 21 20 19 18 16 15 14 14 13 13 12 12 12 11 11 11 11 11 11 11 10 10 10 10 10 10 10 9 9
24 24 23 24 24 24 24 24 23 22 22 22 22 21 20 20 19 18 17 16 15 14 13 13 12 12 11 11 11 11 11 11 11 11 10 10 10 10 10 9 9 9 9 9
23 23 22 23 23 23 23 23 23 23 22 22 22 21 19 19 18 17 16 15 14 13 13 12 12 11 11 11 11 11 11 10 10 10 10 10 10 9 9 9 9 9 9 9
22 22 22 22 22 23 23 23 23 23 22 22 22 21 20 19 18 17 16 15 14 13 13 12 11 11 11 11 10 10 11 10 10 10 10 9 9 9 9 9 9 9 8 8
22 22 22 23 23 23 22 22 22 22 22 22 22 21 20 19 18 16 15 14 14 13 12 12 11 11 11 10 10 10 10 10 10 10 10 9 9 9 9 9 8 8 8 8
21 21 22 22 22 22 22 22 22 22 22 22 21 20 19 18 17 16 15 14 13 13 12 11 11 11 10 10 10 10 10 10 10 9 9 9 9 9 9 8 8 8 8 8
22 21 21 21 22 22 21 22 22 21 22 21 21 20 18 18 16 15 14 14 13 12 12 11 11 10 10 10 10 10 9 9 9 9 9 9 9 9 8 8 8 8 8 8
21 21 21 21 21 20 21 22 22 21 21 21 20 19 18 17 15 14 14 13 13 12 11 11 11 10 10 10 9 9 9 9 9 9 9 9 9 8 8 8 8 8 8 8
21 21 21 21 21 21 21 21 21 21 20 20 19 18 17 15 15 14 13 13 12 12 11 11 10 10 10 9 9 9 9 9 9 9 9 9 8 8 8 8 8 8 8 8
20 20 21 21 20 20 21 21 21 21 20 19 19 18 16 16 17 16 12 12 11 11 10 10 10 10 9 9 9 9 9 9 9 9 8 8 8 8 8 8 8 8 8 8
20 20 21 21 21 21 21 20 20 20 20 18 18 17 16 17 16 14 12 11 11 10 10 10 10 9 9 9 9 9 9 9 9 8 8 8 8 8 8 8 8 8 8 8
21 21 21 21 21 21 20 20 20 19 18 17 17 16 15 14 13 12 11 11 10 10 10 9 9 9 9 9 9 9 9 8 8 8 8 8 8 8 8 8 8 8 8 8
21 21 22 21 21 19 18 19 17 17 17 16 16 15 14 13 12 12 11 10 10 10 10 9 9 9 9 9 9 9 9 8 8 8 8 8 8 8 8 8 8 8 8 9
20 20 20 20 20 18 18 17 17 16 16 16 15 14 14 13 12 12 11 10 10 10 9 9 9 9 9 9 9 9 9 8 8 8 8 8 8 8 8 8 8 9 9 9
20 20 20 20 19 18 17 17 16 16 15 15 14 14 14 13 12 12 11 10 10 10 9 9 9 9 9 9 9 9 8 8 8 8 8 8 8 8 8 8 8 8 8 8
20 20 21 21 20 19 18 17 16 15 15 14 14 13 13 13 12 11 11 10 10 10 9 9 9 9 9 9 9 8 8 8 8 8 8 9 9 9 9 9 9 9 8 8
Wind_Speed
5 7 6 5 4 3 4 6 6 4 3 6 8 7 6 7 8 8 9 8 8 7 6 6 5 5 4 5 6 6 6 5 4 3 3 3 2 2 1 2 2 1 1 1
7 6 2 3 4 5 7 7 6 4 3 4 6 7 6 7 8 8 9 8 8 7 6 5 5 4 5 5 5 5 5 5 4 3 2 1 1 1 1 1 2 1 2 1
4 2 3 5 6 7 7 8 6 5 5 5 6 8 8 8 7 7 7 7 8 8 7 6 5 5 5 5 5 5 5 4 3 3 3 3 2 2 2 2 2 2 2 2
3 2 4 6 6 6 6 5 5 7 8 7 8 8 7 8 8 8 8 7 7 7 6 6 6 5 5 5 5 5 5 4 3 3 2 3 2 2 1 1 1 1 2 2
3 3 5 6 4 6 3 2 6 8 9 8 8 9 5 8 7 7 7 7 6 6 6 6 5 6 5 5 5 5 4 4 4 3 3 2 2 1 1 2 2 1 2 2
3 2 3 2 1 3 3 4 5 8 9 11 7 8 5 4 5 4 5 5 5 5 5 5 5 5 5 5 5 5 5 4 4 3 3 2 1 2 2 2 1 1 1 1
4 5 4 4 5 6 7 7 6 8 8 7 3 7 3 2 1 2 3 4 5 5 5 5 5 5 5 6 5 5 5 5 4 3 2 2 2 2 2 1 1 0 1 1
5 4 5 4 6 5 8 10 9 8 8 6 4 5 1 4 3 2 2 3 5 5 5 5 5 5 5 5 5 4 4 4 4 3 3 2 2 1 1 1 0 0 1 2
4 2 3 2 4 6 7 9 7 10 11 10 6 3 3 4 4 4 4 5 5 5 5 5 5 5 5 5 5 4 4 4 3 3 3 2 2 1 2 1 1 1 1 1
4 5 3 3 5 4 6 5 6 8 8 9 7 6 3 6 5 5 4 5 5 5 5 6 5 5 5 5 4 4 4 4 3 3 2 2 2 1 1 1 2 2 2 2
5 5 4 5 5 5 5 6 7 7 7 8 9 3 2 3 4 5 5 5 5 5 6 6 5 5 5 5 4 4 3 3 3 3 2 2 2 2 1 1 2 2 2 2
4 5 5 4 1 3 5 7 7 7 8 8 8 3 5 3 4 5 5 5 5 5 6 7 6 6 5 5 4 4 3 3 3 3 3 2 2 2 2 2 2 1 1 1
3 4 6 5 5 5 5 5 6 7 7 8 9 2 6 5 5 5 5 5 5 5 6 6 6 5 5 4 3 3 3 3 2 3 3 3 2 2 2 2 1 1 1 2
3 5 7 7 5 3 4 5 6 8 8 8 7 4 3 4 5 5 5 5 6 6 6 6 5 5 4 3 2 2 2 2 3 2 2 2 1 1 2 2 1 2 1 1
3 6 5 5 4 4 4 5 5 7 8 9 6 4 0 3 4 5 5 5 5 5 5 6 5 4 4 3 2 2 2 2 3 3 2 2 2 2 1 1 1 1 2 2
3 5 5 5 4 4 5 6 5 6 6 6 5 3 3 4 5 6 5 5 5 5 6 6 5 4 4 3 2 2 2 2 3 2 2 2 2 1 1 1 1 1 1 2
4 5 6 6 5 7 7 6 6 6 5 5 5 0 5 5 5 5 5 5 5 5 5 6 5 4 3 3 3 2 2 2 3 3 2 2 2 1 1 0 1 1 1 2
5 6 6 6 6 7 2 1 3 4 3 3 1 3 4 4 5 4 4 5 5 5 5 5 4 4 3 3 3 3 3 3 2 2 2 2 2 1 1 1 1 1 1 2
6 6 6 6 7 6 4 4 5 5 4 3 3 5 6 7 6 5 4 4 5 5 5 5 4 4 4 4 3 3 3 3 2 2 2 2 2 2 1 1 2 1 1 1
6 8 7 7 7 6 1 4 3 4 5 5 6 7 8 7 4 4 6 5 5 5 5 5 5 5 4 4 4 3 3 3 2 2 2 2 2 2 2 2 2 1 1 1
8 8 9 9 8 4 2 5 5 5 1 7 7 8 8 4 3 7 8 7 6 6 6 6 5 5 4 4 4 3 2 2 2 2 2 2 2 1 1 1 1 1 2 2
7 7 8 7 7 3 6 6 3 2 5 6 7 8 8 7 9 9 9 9 8 7 7 6 5 5 4 4 4 3 3 2 3 2 2 2 1 1 1 0 1 1 2 2
6 5 3 3 1 3 5 3 3 3 5 6 8 9 9 10 10 10 9 9 8 8 7 6 6 5 4 4 3 3 3 3 3 3 3 2 1 1 0 1 1 2 2 2
4 3 4 3 3 4 5 5 5 5 6 8 9 10 10 10 10 10 10 9 8 7 7 6 6 5 4 4 3 3 3 2 2 2 2 2 2 1 1 1 2 2 3 3
3 4 4 4 5 6 6 7 7 8 9 10 10 9 10 10 11 10 9 9 8 7 6 5 5 4 4 3 3 3 3 3 2 2 2 2 1 1 1 1 2 3 3 4
7 6 6 4 7 6 7 9 10 10 11 11 11 10 10 10 11 10 9 8 7 7 6 6 5 4 4 4 3 3 3 3 3 2 2 1 1 1 2 1 1 1 3 2
Wind_Direction
197 212 200 190 231 250 211 214 206 181 163 214 216 208 191 193 202 202 199 194 194 187 173 169 169 167 168 169 165 167 165 161 164 165 174 171 160 150 142 112 98 95 67 36
203 202 176 188 204 214 214 213 203 174 163 225 216 220 209 203 210 210 207 203 198 187 176 173 174 175 182 182 176 174 173 164 168 160 162 151 147 154 132 98 96 78 58 32
228 98 145 199 197 208 216 227 219 205 179 207 219 221 208 198 206 209 212 208 200 192 187 180 184 191 191 190 186 181 173 163 167 161 168 151 160 180 167 148 113 69 56 49
224 174 199 215 211 226 225 216 222 209 221 223 223 252 201 192 200 209 211 206 201 193 190 187 183 184 188 185 178 170 162 154 155 161 172 183 202 204 175 153 101 85 62 44
206 204 224 230 231 243 260 186 218 226 243 256 231 257 212 182 209 216 214 208 203 193 187 184 182 180 180 175 168 159 152 144 143 150 160 198 210 182 150 152 133 132 89 60
238 203 240 245 214 213 171 187 211 230 241 247 244 258 250 199 217 211 205 205 201 192 180 172 165 164 165 164 159 153 148 138 140 149 153 160 157 148 146 157 150 162 95 62
207 194 181 187 191 186 213 228 237 234 236 250 204 251 272 78 124 200 200 195 184 174 164 160 155 156 155 156 156 156 147 135 129 127 119 133 155 167 166 176 157 158 40 35
237 212 186 208 240 241 227 246 263 272 271 269 211 250 159 102 117 148 169 152 143 144 142 142 139 141 140 141 144 145 140 128 124 116 109 121 143 164 124 125 146 25 10 30
256 249 146 194 243 253 239 243 274 277 278 277 256 217 174 149 144 142 143 140 138 137 136 131 124 120 124 128 126 130 130 125 123 118 124 129 126 97 97 130 167 71 51 36
265 263 224 184 206 221 265 259 247 259 274 274 266 249 235 180 178 163 153 144 135 135 131 126 119 111 106 109 110 113 128 135 137 139 137 124 125 124 129 129 74 56 42 25
253 253 236 216 241 250 223 230 251 265 273 277 280 285 55 163 175 170 154 141 139 138 137 133 126 119 114 116 116 122 128 133 143 144 135 122 114 107 100 85 83 70 48 24
236 260 259 250 253 284 263 260 250 260 267 267 280 296 86 106 139 147 142 136 137 138 139 137 133 129 125 123 122 128 130 139 150 140 131 117 106 97 85 73 64 70 58 23
211 242 255 232 204 208 235 243 252 260 272 271 271 263 111 123 129 135 136 135 137 141 139 140 137 134 131 126 131 130 140 143 141 133 126 112 108 99 82 59 32 40 58 40
246 255 267 277 296 291 257 250 246 253 263 271 273 272 167 151 147 142 141 140 143 145 145 144 142 138 131 128 131 137 140 148 145 130 117 108 100 102 88 63 37 29 28 25
236 252 256 273 279 275 269 265 251 253 272 280 288 285 319 148 153 146 145 143 146 149 148 149 151 145 136 131 141 143 139 144 147 141 127 105 82 82 81 68 48 32 17 10
223 247 246 250 237 248 261 260 253 257 265 269 272 273 82 119 139 147 152 155 163 164 156 154 153 152 152 152 151 145 141 144 146 142 134 106 90 82 55 47 34 15 18 10
216 225 246 252 244 254 253 249 246 247 257 270 277 308 133 145 157 160 160 163 164 161 159 156 156 156 160 162 160 153 148 148 152 145 134 116 111 109 92 67 23 7 14 16
228 242 248 255 250 253 265 138 238 242 253 272 274 134 147 141 137 138 153 160 161 158 155 153 153 152 154 155 156 155 151 157 153 141 127 114 119 101 90 92 47 15 10 6
228 238 250 255 258 262 227 206 220 235 241 216 189 156 145 136 141 139 142 152 153 151 149 147 147 144 143 147 150 145 139 137 140 128 106 93 87 84 81 59 35 17 358 346
203 227 244 249 261 265 215 153 184 235 231 169 174 165 159 174 202 141 139 140 135 133 135 139 141 136 140 148 152 149 143 144 144 128 114 103 86 74 64 44 2 351 338 325
201 215 233 245 252 255 124 143 182 237 95 144 167 167 168 177 64 115 133 133 134 134 136 139 139 139 141 148 154 150 148 149 144 133 123 113 101 97 82 41 341 319 311 327
227 224 225 235 244 230 140 169 213 61 106 142 155 156 150 123 116 125 132 134 137 137 137 141 140 136 138 151 157 152 143 135 138 135 131 125 127 145 116 62 309 315 314 299
238 255 254 252 275 99 148 148 110 121 134 139 147 147 144 139 136 135 135 137 140 140 139 143 144 140 145 156 165 155 140 143 146 148 146 146 141 135 245 264 277 293 292 299
211 226 227 218 189 166 160 156 145 138 134 134 138 144 148 145 143 142 140 140 141 142 145 151 152 150 149 155 159 152 151 153 154 154 158 175 185 194 190 286 306 320 330 328
246 201 213 214 183 164 171 168 156 143 137 135 137 142 145 145 146 144 143 144 146 149 152 155 157 156 151 150 146 148 152 159 159 163 173 190 213 234 263 292 327 322 341 342
227 226 231 231 187 184 170 167 159 152 149 146 144 143 144 146 147 146 145 146 150 152 154 156 160 161 155 153 150 156 167 172 176 187 206 225 239 262 277 278 283 283 275 241
Height
1512 1508 1504 1504 1503 1502 1503 1505 1507 1507 1510 1511 1510 1512 1516 1522 1524 1525 1528 1530 1533 1535 1537 1538 1540 1541 1542 1543 1544 1545 1546 1546 1548 1549 1549 1550 1550 1550 1550 1550 1549 1549 1548 1548
1508 1505 1504 1505 1506 1506 1505 1507 1507 1509 1511 1512 1511 1513 1515 1520 1522 1524 1526 1528 1531 1533 1535 1537 1538 1539 1540 1541 1542 1543 1544 1545 1546 1546 1547 1548 1548 1548 1548 1547 1547 1547 1546 1545
1504 1504 1507 1507 1507 1507 1506 1505 1505 1508 1511 1512 1513 1515 1514 1517 1521 1523 1525 1527 1529 1531 1533 1535 1536 1537 1538 1539 1540 1541 1542 1543 1544 1544 1545 1545 1546 1546 1546 1546 1545 1545 1544 1544
1503 1504 1506 1506 1505 1504 1505 1502 1504 1508 1510 1506 1510 1513 1509 1512 1517 1521 1523 1525 1527 1529 1531 1533 1534 1535 1536 1537 1538 1539 1540 1541 1541 1542 1543 1544 1545 1546 1545 1544 1544 1543 1542 1542
1502 1503 1505 1505 1503 1503 1502 1503 1504 1505 1506 1507 1506 1510 1505 1509 1514 1516 1520 1522 1525 1527 1529 1531 1532 1533 1534 1535 1536 1537 1538 1539 1540 1540 1541 1542 1543 1543 1543 1542 1542 1542 1541 1540
1502 1504 1503 1503 1504 1505 1505 1506 1505 1504 1502 1511 1504 1509 1507 1505 1510 1514 1518 1520 1523 1525 1527 1529 1530 1531 1532 1533 1535 1536 1537 1537 1538 1539 1540 1540 1541 1541 1541 1541 1541 1541 1540 1539
1502 1501 1503 1504 1504 1505 1504 1507 1512 1512 1511 1507 1502 1507 1508 1507 1511 1514 1516 1518 1521 1523 1525 1527 1528 1529 1530 1532 1533 1534 1535 1536 1537 1538 1538 1539 1539 1539 1540 1540 1540 1539 1539 1539
1505 1504 1500 1501 1501 1501 1502 1503 1511 1517 1512 1503 1503 1506 1507 1510 1514 1516 1517 1518 1520 1523 1524 1526 1527 1528 1529 1531 1532 1533 1534 1535 1536 1537 1537 1538 1538 1539 1539 1538 1538 1538 1538 1537
1501 1503 1499 1501 1501 1500 1500 1498 1496 1503 1502 1506 1501 1503 1508 1512 1514 1516 1517 1518 1520 1522 1524 1525 1527 1528 1529 1530 1531 1532 1533 1534 1535 1536 1536 1537 1537 1537 1537 1537 1537 1537 1536 1536
1498 1505 1499 1500 1500 1501 1498 1496 1500 1504 1514 1515 1506 1504 1505 1508 1511 1514 1517 1518 1520 1523 1524 1526 1527 1528 1529 1530 1531 1532 1533 1534 1535 1535 1536 1537 1537 1536 1536 1536 1536 1535 1535 1535
1499 1504 1501 1499 1499 1498 1499 1500 1499 1499 1502 1512 1515 1509 1501 1505 1509 1512 1516 1519 1521 1523 1524 1526 1527 1529 1529 1530 1531 1532 1533 1534 1535 1535 1535 1536 1536 1536 1536 1536 1535 1534 1534 1534
1500 1500 1501 1498 1497 1498 1497 1497 1499 1508 1506 1503 1507 1510 1506 1507 1510 1513 1516 1519 1521 1523 1525 1526 1528 1529 1530 1531 1531 1532 1533 1534 1534 1534 1535 1535 1535 1535 1535 1535 1534 1534 1533 1533
1501 1503 1507 1503 1503 1499 1498 1497 1497 1498 1502 1503 1507 1510 1508 1510 1512 1515 1517 1520 1522 1523 1525 1526 1528 1529 1530 1531 1531 1532 1533 1533 1534 1534 1534 1534 1534 1534 1534 1534 1533 1533 1533 1532
1502 1501 1504 1507 1501 1497 1498 1497 1497 1499 1501 1502 1501 1502 1505 1508 1511 1515 1518 1520 1522 1524 1525 1526 1528 1529 1530 1530 1531 1532 1532 1533 1533 1533 1533 1533 1533 1533 1533 1533 1533 1533 1532 1532
1501 1500 1498 1497 1495 1496 1497 1497 1497 1498 1497 1499 1499 1500 1502 1507 1511 1515 1518 1520 1522 1523 1525 1526 1527 1528 1529 1530 1531 1531 1532 1532 1532 1532 1532 1532 1532 1532 1532 1532 1532 1532 1531 1531
1500 1501 1499 1499 1496 1496 1498 1496 1496 1497 1496 1497 1499 1502 1505 1509 1513 1515 1518 1519 1521 1523 1524 1526 1527 1528 1529 1530 1530 1531 1531 1531 1532 1532 1532 1532 1532 1532 1532 1531 1532 1531 1531 1530
1497 1499 1501 1500 1495 1496 1500 1495 1495 1496 1495 1496 1498 1501 1506 1509 1512 1515 1517 1519 1520 1522 1524 1525 1526 1528 1528 1529 1530 1530 1531 1531 1531 1532 1532 1531 1531 1531 1531 1531 1531 1531 1530 1529
1498 1498 1496 1497 1499 1507 1496 1492 1494 1495 1496 1497 1500 1503 1507 1510 1513 1516 1517 1519 1521 1522 1523 1525 1526 1527 1528 1529 1529 1530 1530 1530 1531 1531 1531 1531 1531 1531 1531 1531 1531 1530 1530 1529
1496 1497 1496 1496 1498 1496 1492 1492 1493 1495 1497 1498 1501 1505 1509 1511 1514 1516 1518 1519 1520 1522 1523 1525 1526 1527 1528 1529 1529 1530 1530 1530 1530 1531 1531 1531 1531 1531 1531 1531 1531 1530 1529 1528
1495 1495 1495 1494 1500 1500 1491 1490 1493 1496 1497 1498 1501 1505 1508 1510 1508 1513 1517 1519 1521 1522 1523 1524 1526 1527 1528 1528 1529 1529 1530 1530 1530 1531 1531 1531 1531 1531 1531 1531 1530 1530 1529 1528
1492 1493 1492 1492 1494 1489 1488 1492 1495 1498 1496 1498 1501 1504 1507 1508 1509 1514 1517 1519 1520 1522 1523 1525 1526 1527 1528 1528 1529 1530 1530 1530 1531 1531 1531 1531 1531 1531 1531 1531 1530 1530 1529 1528
1485 1486 1487 1488 1491 1492 1490 1492 1492 1495 1497 1499 1501 1504 1507 1510 1512 1514 1517 1519 1520 1522 1523 1525 1526 1527 1528 1529 1529 1530 1530 1530 1530 1531 1531 1531 1531 1532 1532 1531 1530 1530 1529 1528
1481 1481 1479 1482 1487 1489 1491 1492 1495 1496 1498 1500 1502 1505 1508 1510 1513 1515 1517 1519 1521 1523 1524 1525 1526 1527 1528 1529 1529 1530 1530 1530 1530 1530 1531 1531 1531 1531 1531 1531 1530 1530 1529 1528
1482 1484 1482 1483 1486 1489 1491 1493 1495 1497 1499 1501 1503 1505 1508 1510 1513 1516 1518 1520 1521 1523 1524 1525 1527 1528 1528 1529 1529 1529 1530 1530 1530 1530 1531 1531 1531 1531 1531 1531 1530 1530 1529 1528
1479 1482 1481 1483 1486 1489 1491 1493 1495 1497 1499 1502 1504 1506 1509 1511 1513 1516 1518 1520 1522 1523 1525 1526 1527 1528 1528 1529 1529 1529 1530 1530 1530 1530 1531 1531 1531 1531 1531 1530 1529 1529 1528 1527
1478 1479 1478 1477 1481 1484 1488 1492 1495 1497 1499 1502 1504 1507 1509 1511 1514 1516 1518 1520 1522 1523 1525 1526 1527 1528 1528 1529 1529 1529 1530 1530 1530 1531 1531 1531 1531 1530 1530 1529 1529 1527 1527 1525